Home   Weather   Lansing   Past weeks

Flag for USA Past Weather in Lansing, Michigan, USA — Yesterday and Last 2 Weeks

Now
22 °F

Ice fog.


Feels Like: 22 °F
Forecast: 21 / 34 °F
Wind: No wind

Location: Capital City Airport

Current Time: Jan 16, 2017 at 6:03:31 am

Latest Report: Jan 16, 2017 at 4:53 am


Visibility: 6 mi

Pressure: 30.34 "Hg

Humidity: 85%

Dew Point: 18 °F

Location of LansingLocation

Past Weather in Lansing — Graph

°F

Lansing Temperature Yesterday

Maximum temperature yesterday: 35 °F (at 3:53 pm)
Minimum temperature yesterday: 15 °F (at 7:53 am)
Average temperature yesterday: 24 °F

High & Low Weather Summary for the Past Weeks

 TemperatureHumidityPressure
High47 °F (Jan 10, 6:53 pm)93% (Jan 2, 10:53 pm)30.81 "Hg (Jan 2, 10:53 pm)
Low4 °F (Jan 7, 1:53 am)38% (Jan 1, 2:53 pm)29.30 "Hg (Jan 10, 5:25 pm)
Average24 °F75%30.12 "Hg
* Reported Jan 1 4:53 am — Jan 16 4:53 am, Lansing, Weather by CustomWeather, © 2017

Note: Actual official high and low records may vary slightly from our data, if they occured in-between our weather recording intervals... More about our weather records

Advertising

Lansing Weather History for the Previous 24 Hours

Scroll right to see more
 ConditionsComfort  
Time TempWeatherWind HumidityBarometerVisibility
4:53 am
Mon, Jan 16
22 °FIce fog.No wind85%30.34 "Hg6 mi
3:53 am22 °FIce fog.5 mph85%30.36 "Hg6 mi
2:53 am23 °FClear.5 mph81%30.36 "Hg6 mi
1:53 am22 °FClear.5 mph82%30.36 "Hg5 mi
12:53 am22 °FClear.No wind82%30.37 "Hg6 mi
11:53 pm
Sun, Jan 15
24 °FClear.No wind77%30.37 "Hg7 mi
10:53 pm25 °FClear.6 mph75%30.37 "Hg8 mi
9:53 pm23 °FClear.5 mph81%30.37 "Hg6 mi
8:53 pm26 °FClear.No wind74%30.38 "Hg9 mi
7:53 pm26 °FClear.3 mph74%30.39 "Hg9 mi
6:53 pm29 °FClear.No wind69%30.39 "Hg10 mi
5:53 pm30 °FClear.5 mph66%30.38 "Hg10 mi
4:53 pm33 °FSunny.7 mph63%30.39 "Hg10 mi
3:53 pm35 °FSunny.10 mph59%30.38 "Hg10 mi
2:53 pm34 °FSunny.7 mph61%30.38 "Hg10 mi
1:53 pm34 °FSunny.9 mph61%30.39 "Hg10 mi
12:53 pm33 °FSunny.6 mph66%30.42 "Hg9 mi
11:53 am30 °FSunny.5 mph72%30.45 "Hg8 mi
10:53 am27 °FIce fog.3 mph85%30.46 "Hg4 mi
9:53 am22 °FIce fog.No wind89%30.47 "Hg3 mi
8:53 am16 °FIce fog.No wind84%30.46 "Hg3 mi
7:53 am15 °FIce fog.No wind83%30.47 "Hg4 mi
6:53 am16 °FClear.No wind80%30.46 "Hg4 mi
Weather by CustomWeather, © 2017

See weather overviewHow to use our weather pages